Location: Givhans Ferry State Park
(33.0284°N, 80.3868°W)
Time: 14:57:18
(UTC-04:00)

Daily predictions for brighter satellites

Satellite Brightness Start Highest point End
(mag) Time Altitude Azimuth Time Altitude Azimuth Time Altitude Azimuth
ATLAS CENTAUR R/B 2.9 19:26:15 10° SSW 19:30:01 77° SE 19:41:08 10° NE
Cosmos 2056 Rocket 3.8 19:27:05 10° N 19:32:21 49° ENE 19:37:33 10° SE
Meteor 2-5 Rocket 3.8 19:27:19 10° N 19:32:56 88° W 19:38:28 10° S
Cosmos 2346 Rocket 4.4 19:29:20 10° N 19:35:23 68° E 19:41:23 10° SSE
SJ-6B 3.3 19:36:39 10° SE 19:40:20 39° ENE 19:44:06 10° N
GPS 2-04 Rocket1 3.2 19:38:39 10° SW 19:41:51 36° SSE 19:45:05 11° E
Cosmos 1371 Rocket 4.0 19:36:47 10° NNW 19:42:07 84° ENE 19:47:28 10° SSE
IDEFIX/ARIANE 42P 4.0 19:40:00 10° S 19:44:56 44° W 19:49:56 10° NNW
COSMO-SKYMED 1 3.5 19:42:21 10° N 19:46:35 53° WNW 19:50:48 10° SSW
Cosmos 192 4.3 19:43:59 10° S 19:48:55 77° ESE 19:53:53 10° NNE
NOAA 12 4.2 19:44:23 10° SSE 19:49:27 52° ENE 19:54:34 10° N
Cosmos 1758 4.0 19:47:20 10° SSE 19:51:01 33° E 19:54:42 10° NNE
HJ-1C 4.5 19:49:48 10° SE 19:52:36 25° ENE 19:55:25 10° NNE
Aureole 2 Rocket 4.1 19:53:21 10° SSW 19:57:36 49° WNW 20:01:49 10° N
USA 215 3.3 19:51:53 10° NE 19:58:27 89° ESE 20:04:59 10° SW
ISS -2.4 19:55:54 10° SSW 19:58:46 29° SE 20:00:33 18° E
OAO 3 Rocket 3.3 19:54:08 10° W 19:58:53 70° N 20:02:48 15° ENE
Cosmos 1484 Rocket 3.7 19:55:20 10° S 19:59:01 52° W 20:02:49 10° NNW
Cosmos 1624 Rocket 4.1 19:54:15 10° NNW 19:59:28 83° WSW 20:04:39 10° SSE
SAR-Lupe-1 3.9 19:56:25 10° SSE 19:59:57 81° ENE 20:03:31 10° N
SL-19 R/B 4.4 19:54:45 10° SSE 20:00:20 86° WSW 20:06:11 10° NNW
ASTRO E2 2.8 20:01:31 10° W 20:05:32 71° S 20:08:09 21° E
Cosmos 1766 Rocket 3.8 20:02:14 10° N 20:06:27 46° E 20:10:36 10° SSE
ALOS 3.3 20:04:00 15° ESE 20:06:44 25° ENE 20:10:31 10° NNE
Cosmos 2034 Rocket 4.0 20:02:17 10° S 20:08:26 65° E 20:14:40 10° NNE
Cosmos 1464 Rocket 4.0 20:04:00 10° S 20:10:16 88° W 20:16:31 10° N
ATLAS 5 CENTAUR R/B 2.3 20:07:49 10° SW 20:12:28 61° WNW 20:17:28 10° NNE
BREEZE-M TANK 2.9 20:04:18 10° WNW 20:13:00 84° SW 20:15:14 20° SE
Helios 1B rocket 2.3 20:10:08 10° NNE 20:14:14 74° ESE 20:18:20 10° S
Meteor 1-29 2.9 20:11:17 10° NNE 20:14:45 58° E 20:18:11 10° S
Meteor 1-21 Rocket 4.5 20:10:37 10° N 20:15:54 43° ENE 20:21:07 10° SSE
Atlas Centaur 2 3.6 20:08:55 10° W 20:17:13 54° SSW 20:23:25 17° SE
Cosmos 1076 Rocket 3.4 20:13:25 10° N 20:17:45 82° E 20:22:06 10° S
Cosmos-2242 2.9 20:15:04 10° S 20:19:23 70° E 20:23:45 10° NNE
SeaSat 1 3.2 20:15:15 10° NE 20:19:30 29° ESE 20:23:43 10° SSE
CZ-4B DEB 4.2 20:23:56 24° NE 20:23:56 24° NE 20:25:50 10° NNE
SL-16 R/B 4.1 20:23:36 10° SW 20:28:37 32° WNW 20:33:40 10° N
FREGAT/IRIS 3.8 20:25:55 10° S 20:28:53 44° W 20:31:52 10° NNW
Cosmos 1452 Rocket 3.4 20:23:42 10° N 20:28:57 67° ENE 20:33:23 14° SSE
SEDSat Delta rocket 4.0 20:23:36 10° W 20:30:18 79° S 20:34:02 29° E
CZ-2D R/B 4.1 20:33:52 32° NE 20:33:52 32° NE 20:36:49 10° N
Cosmos 1842 Rocket 3.7 20:30:29 10° SSE 20:34:36 45° E 20:38:45 10° NNE
ATLAS CENTAUR R/B 3.6 20:32:21 10° WNW 20:35:33 23° WSW 20:38:34 10° SSW
SL-8 R/B 4.0 20:34:21 10° WSW 20:39:05 65° NW 20:42:04 22° NE
METEOR-M 4.4 20:34:28 10° S 20:39:46 68° WSW 20:45:07 10° NNW
Cosmos 1544 3.1 20:36:09 10° S 20:39:52 80° W 20:43:37 10° N
Cosmos 1500 Rocket 4.3 20:36:02 10° NNE 20:39:25 34° ENE 20:39:25 34° ENE
Cosmos 1408 Rocket 4.0 20:35:55 10° NNW 20:40:11 60° W 20:44:25 10° S
Gbstr 26 Del rocket 3.1 20:40:03 10° SW 20:44:17 68° SE 20:45:51 42° ENE
Cosmos 1953 3.5 20:41:12 10° SSW 20:44:59 43° W 20:48:48 10° N
H-2A R/B 3.4 20:50:10 43° NNE 20:50:10 43° NNE 20:53:04 10° N
FENGYUN 3A 3.5 20:47:47 24° SSE 20:51:02 74° ENE 20:56:25 10° N
Cosmos 1420 Rocket 4.0 20:45:50 10° N 20:51:04 58° ENE 20:52:00 50° ESE
Resurs 1-3 3.9 20:48:38 11° S 20:52:44 66° WSW 20:57:07 10° NNW
Resurs 01 Rocket 2.6 20:49:21 10° S 20:53:38 48° W 20:57:57 10° NNW
ASTEX 1 3.3 20:55:32 10° N 21:00:26 83° W 21:05:19 10° S
CENTAUR R/B 2.3 20:57:21 10° SSW 21:03:13 82° ESE 21:09:48 10° NNE
Helios 1A 4.4 21:00:37 10° SSW 21:04:30 38° W 21:08:27 10° NNW
Cosmos 1048 Rocket 4.4 21:00:24 10° SSW 21:05:40 63° WNW 21:10:54 10° N
Delta 168 4.5 21:02:32 10° WSW 21:07:31 42° S 21:08:13 41° SSE
Cosmos 1743 Rocket 3.9 21:04:13 10° NNW 21:08:37 64° W 21:09:33 49° SSW
Cosmos 1943 3.0 21:05:59 10° SSW 21:11:37 88° ESE 21:17:17 10° NNE
Cosmos 1470 4.2 21:13:51 30° NNW 21:13:51 30° NNW 21:16:03 10° N
Cosmos 2369 Rocket 3.1 21:10:26 10° N 21:14:17 35° NNE 21:14:17 35° NNE
Cosmos 1943 Rocket 4.3 21:15:32 10° NNE 21:16:40 14° NNE 21:16:40 14° NNE
Cosmos 1092 Rocket 4.2 21:24:19 10° NNW 21:30:29 68° W 21:32:27 44° SSW
ISS 0.0 21:32:44 10° W 21:33:16 13° W 21:33:16 13° W
Cosmos 1634 Rocket 4.4 21:34:24 10° SSW 21:40:33 59° W 21:46:41 10° N
ALOS 4.2 21:42:33 22° SW 21:44:02 26° W 21:47:56 10° NW
SeaSat 1 4.2 21:52:39 10° N 21:56:55 30° WNW 22:01:09 10° WSW
Atlas Centaur 2 4.4 21:59:58 10° W 22:06:05 24° SW 22:06:05 24° SW
